SCP
0 0 0 0 0 0 0 0 0 0 0 0 0 0 0 0 0 0 0 0 0 0 0 0 0 0 0 0 0 0 0 0 0 0 0 0 0 0 0 0 0 0 0 0
0 0 0 0 0 0 0 0 0 0 0 0 0 0 0 0 0 0 0 0 0 0 0 0 0 0 0 0 0 0 0 0 0 0 0 0 0 0 0 0 0 0 0 0
0 0 0 0 0 0 0 0 0 0 0 0 0 0 0 0 0 0 0 0 0 0 0 0 0 0 0 0 0 0 0 0 0 0 0 0 0 0 0 0 0 0 0 0
0 0 0 0 0 0 0 0 0 0 0 0 0 0 0 0 0 0 0 0 0 0 0 0 0 0 0 0 0 0 0 0 0 0 0 0 0 0 0 0 0 0 0 0
0 0 0 0 0 0 0 0 0 0 0 0 0 0 0 0 0 0 0 0 0 0 0 0 -0 -0 0 0 0 0 0 0 0 0 0 0 0 0 0 0 0 0 0 0
0 0 0 0 0 0 0 0 0 0 0 0 0 0 0 0 0 0 0 0 0 0 0 0 -0 -0 -0 0 0 0 0 0 0 0 0 0 0 0 0 0 0 0 0 0
0 0 0 0 0 0 0 0 0 0 0 0 0 0 0 0 0 0 0 0 0 0 0 0 -0 -0 -0 0 0 0 0 0 0 0 0 0 0 0 0 0 0 0 0 0
0 0 0 0 0 0 0 0 0 0 0 0 0 0 0 0 0 0 0 0 0 0 0 0 0 -0 -0 0 0 0 0 0 0 0 0 0 0 0 0 0 0 0 0 0
0 0 0 0 0 0 0 0 0 0 0 0 0 0 0 0 0 0 0 0 0 0 0 0 0 0 0 0 0 0 0 0 0 0 0 0 0 0 0 0 0 0 0 0
0 0 0 0 0 0 0 0 0 0 0 0 0 0 0 0 0 0 0 0 0 0 0 0 0 0 0 0 0 0 0 0 0 0 0 0 0 0 0 0 0 0 0 0
0 0 0 0 0 0 0 0 0 0 0 0 0 0 0 0 0 0 0 0 0 0 0 0 0 0 0 0 0 0 0 0 0 0 0 0 0 0 0 0 0 0 0 0
0 0 0 0 0 0 0 0 0 0 0 0 0 0 0 0 0 0 0 0 0 0 0 0 0 0 0 0 0 0 0 0 0 0 0 0 0 0 0 0 0 0 0 0
0 0 0 0 0 0 0 0 0 0 0 0 0 0 -0 0 0 -0 0 0 0 0 0 0 0 0 0 0 0 0 0 0 0 0 0 0 0 0 0 0 0 0 0 0
0 0 0 0 0 0 0 0 0 0 0 0 0 0 0 0 0 0 0 0 0 0 0 0 0 0 0 0 0 0 0 0 0 0 0 0 0 0 0 0 0 0 0 0
0 0 0 0 0 0 0 0 0 0 0 0 0 0 0 0 0 0 0 0 0 0 0 0 0 0 0 0 0 0 0 0 0 0 0 0 0 0 0 0 0 0 0 0
0 0 0 0 0 0 0 0 0 0 0 -0 0 0 0 0 0 0 0 0 0 0 0 0 0 0 0 0 0 0 0 0 0 0 0 0 0 0 0 0 0 0 0 0
0 0 0 0 0 0 0 0 0 0 0 -0 0 0 0 0 0 0 0 0 0 0 0 0 0 0 0 0 0 0 0 0 0 0 0 0 0 -0 0 0 0 0 0 0
0 0 0 0 0 0 0 0 0 0 0 0 0 0 0 0 0 0 0 0 0 0 0 0 0 0 0 0 0 0 0 0 0 0 0 0 0 0 0 0 0 0 0 0
0 0 0 0 0 0 0 0 0 0 0 0 0 0 0 0 0 0 0 0 0 0 0 0 0 0 0 0 0 0 0 0 0 0 0 0 0 0 0 0 0 0 0 0
0 0 0 0 0 0 0 0 0 0 0 0 0 0 0 0 0 0 0 0 0 0 0 0 0 0 0 0 0 0 0 0 0 0 0 0 0 0 0 0 0 0 0 0
0 0 0 0 0 0 0 0 0 0 0 0 0 0 0 0 0 0 0 0 0 0 0 0 0 0 0 0 0 0 0 0 0 0 0 0 0 0 0 0 0 0 0 0
0 0 0 0 0 0 0 0 0 0 0 0 0 0 0 0 0 0 0 0 0 0 0 0 0 0 0 0 0 0 0 0 0 0 0 0 0 0 0 0 0 0 0 0
0 0 0 0 0 0 0 0 0 0 0 0 0 0 0 0 0 0 0 0 0 0 0 0 0 0 0 0 0 0 0 0 0 0 0 0 0 0 0 0 0 0 0 0
0 0 0 0 0 0 0 0 0 0 0 0 0 0 0 0 0 0 0 0 0 0 0 0 0 0 0 0 0 0 0 0 0 0 0 0 0 0 0 0 0 0 0 0
0 0 0 0 0 0 0 0 0 0 0 0 0 0 0 0 0 0 0 0 0 0 0 0 0 0 0 0 0 0 0 0 0 0 0 0 0 0 0 0 0 0 0 0
0 0 0 0 0 0 0 0 0 0 0 0 0 0 0 0 0 0 0 0 0 0 0 0 0 0 0 0 0 0 0 0 0 0 0 0 0 0 0 0 0 0 0 0
Wind_Speed
4 5 4 3 2 2 5 5 3 1 3 2 1 4 4 3 3 3 2 2 2 2 2 1 1 1 1 1 1 1 1 1 1 1 1 0 0 0 1 1 1 2 2 1
4 5 3 1 3 5 5 5 3 2 3 2 2 5 4 3 3 3 3 3 3 3 2 1 2 1 1 1 1 1 1 1 1 1 1 1 1 0 0 1 1 2 2 2
7 3 1 3 5 5 4 3 2 0 2 1 3 3 2 1 2 2 3 3 3 3 3 3 2 2 1 1 1 1 1 1 1 1 0 0 1 1 1 1 1 1 2 1
6 3 1 4 3 1 2 2 2 1 0 1 3 3 2 2 3 3 4 4 4 4 3 3 3 3 3 2 2 1 1 1 1 1 1 2 1 2 1 1 1 1 1 2
4 3 3 3 2 1 2 2 2 2 1 0 0 3 2 0 3 4 4 5 5 4 4 3 3 3 3 3 2 1 1 1 1 1 2 2 2 2 1 1 1 1 1 1
4 2 2 2 1 0 2 3 3 2 1 1 1 3 4 2 4 4 4 4 4 3 3 3 3 2 2 2 2 2 2 2 2 2 2 3 3 3 2 2 1 1 1 1
3 2 2 2 1 2 1 1 1 1 0 2 1 4 6 3 4 5 5 5 4 3 3 3 3 3 3 2 2 2 2 2 2 2 3 3 4 4 4 3 2 2 1 1
2 1 3 3 2 1 1 1 0 1 2 1 2 6 4 2 3 4 5 5 4 4 3 3 4 4 3 3 3 3 3 3 3 3 3 3 3 3 2 3 2 2 1 1
2 1 2 2 1 1 2 2 2 3 2 2 4 5 6 3 4 3 3 3 4 4 4 4 4 4 4 4 4 4 4 4 3 3 3 3 3 2 2 2 2 2 1 1
1 2 0 1 1 3 2 3 2 2 1 3 4 5 4 4 4 3 3 4 4 3 4 4 4 4 4 4 4 4 4 4 4 3 3 2 3 3 3 2 2 2 1 1
0 3 1 1 1 2 3 3 2 2 1 2 4 4 3 4 3 4 4 4 4 4 4 4 4 4 4 4 4 4 4 4 4 3 3 3 3 3 3 2 2 2 2 1
1 2 1 1 0 2 2 3 4 3 3 3 4 6 1 4 4 4 5 4 4 4 5 4 4 4 4 4 4 4 4 4 4 3 3 3 3 3 3 3 3 3 3 2
3 3 1 1 2 2 3 3 3 1 2 4 5 7 2 2 4 5 6 5 4 5 5 4 4 4 4 4 4 4 4 4 4 3 3 3 3 3 3 3 3 3 3 2
3 2 4 4 1 3 5 6 7 6 5 6 11 11 8 7 7 6 6 6 6 5 5 5 5 5 4 5 5 4 4 4 3 3 3 3 3 3 3 3 3 3 3 3
3 3 2 3 3 3 6 9 11 13 11 10 10 12 15 10 9 8 7 7 6 6 6 6 6 5 5 4 4 4 4 3 3 3 3 4 3 3 3 3 3 2 2 3
2 3 1 3 2 4 8 12 13 14 13 15 15 18 15 10 8 9 9 8 8 8 7 7 6 6 6 5 5 4 4 3 3 3 3 3 3 3 3 3 2 2 3 3
5 5 3 3 2 4 11 13 16 12 13 13 15 14 7 6 7 8 8 8 10 9 8 8 7 7 6 5 5 5 4 3 3 3 3 3 3 3 3 3 2 2 3 3
6 5 2 1 1 8 6 2 9 12 13 16 15 13 10 9 7 8 8 10 10 9 8 8 7 6 5 4 3 3 2 2 3 3 3 3 3 3 3 3 3 3 3 3
3 5 4 3 4 11 8 6 8 10 11 14 19 18 12 6 6 9 9 10 10 8 7 6 5 5 4 3 3 3 2 2 3 3 3 3 3 3 3 3 4 3 3 3
2 2 3 4 5 9 5 4 5 4 9 8 14 14 9 6 5 5 2 4 5 5 4 4 3 3 3 3 3 3 3 3 3 4 3 3 3 3 3 4 4 3 3 3
6 4 6 7 8 13 5 7 8 6 6 3 10 10 10 11 8 2 2 2 3 4 4 3 3 3 3 3 3 4 3 4 4 2 2 2 3 3 3 3 2 2 2 2
13 11 10 8 9 14 9 12 13 9 1 3 6 8 10 10 7 5 5 4 3 3 3 3 3 3 2 3 3 4 4 3 2 2 2 2 2 3 2 2 2 2 2 3
13 13 10 15 13 4 13 13 8 3 5 5 6 7 8 8 8 8 7 5 5 4 3 3 3 3 2 2 3 4 4 2 1 2 2 2 2 2 2 2 2 2 2 3
8 5 6 10 15 11 12 13 10 9 9 8 7 6 7 9 9 7 6 5 5 4 4 3 3 3 3 3 3 4 2 1 2 3 3 2 2 2 2 2 3 3 3 3
10 11 8 11 12 9 12 17 18 14 12 11 10 8 10 10 9 8 7 6 5 4 4 4 4 5 4 3 3 3 2 2 3 3 3 3 3 3 3 3 3 4 4 4
12 14 14 15 12 10 9 8 12 13 14 14 12 10 10 10 10 8 7 6 5 4 4 4 4 5 4 3 3 3 2 3 4 3 3 3 3 3 3 3 3 5 6 6
Wind_Direction
33 66 62 52 51 109 133 127 114 69 13 347 316 295 287 279 259 245 250 253 258 277 317 345 339 341 334 351 360 344 322 303 291 275 258 253 303 14 22 24 20 16 9 2
94 61 26 52 106 111 123 118 90 62 25 349 330 296 281 252 257 261 255 255 263 273 299 318 332 342 318 328 329 290 284 281 290 302 300 263 257 259 302 344 7 10 3 348
86 57 352 103 100 111 103 138 123 52 337 55 313 266 228 222 260 273 264 257 261 264 274 290 304 305 296 297 292 284 292 295 289 275 244 182 229 234 239 300 332 353 350 348
69 26 74 102 78 91 128 137 145 154 194 42 351 280 250 246 269 266 263 260 258 256 262 278 295 300 295 290 283 279 286 291 279 251 221 223 236 246 254 284 305 334 344 344
76 29 43 73 34 4 109 136 142 145 127 142 352 263 272 261 267 264 253 255 262 260 257 260 267 274 283 288 288 275 266 264 262 244 235 227 244 252 242 243 279 295 310 316
76 60 21 13 359 102 137 129 109 122 190 239 232 251 264 220 244 265 259 257 264 269 267 269 275 279 281 295 289 280 258 259 258 241 235 230 236 237 230 232 246 262 277 288
68 76 39 353 64 81 106 160 129 157 228 242 137 245 253 250 244 252 266 264 260 258 264 266 268 268 270 276 280 274 258 256 258 249 241 239 242 240 232 236 240 244 253 275
113 80 29 17 26 45 75 340 121 231 246 278 210 243 256 279 277 265 269 274 270 256 251 253 255 257 259 259 260 258 252 250 250 250 248 244 242 240 242 242 253 250 255 272
146 128 63 34 17 8 115 93 29 100 86 269 252 268 281 250 261 256 263 268 270 263 253 253 258 259 261 259 255 252 250 251 250 253 253 251 248 247 249 243 245 257 266 271
133 135 14 342 161 61 43 128 154 156 214 273 276 257 244 231 245 248 255 264 274 272 263 257 259 263 266 263 259 254 251 253 255 251 243 242 246 247 249 246 244 251 259 252
102 133 107 151 202 180 140 141 132 117 272 252 282 267 209 224 241 254 260 267 270 267 263 258 261 265 264 260 253 249 250 252 252 247 240 232 238 246 246 243 246 242 236 234
120 121 159 228 69 315 254 208 183 200 205 223 261 271 159 229 254 260 267 269 270 267 265 265 264 267 262 256 249 245 243 243 246 243 237 233 238 241 241 240 241 238 233 228
158 144 131 181 187 201 228 210 200 154 152 195 228 259 123 238 260 261 264 269 271 272 274 273 265 263 262 256 247 243 240 239 237 232 229 234 237 240 244 243 240 237 237 236
148 163 209 229 217 169 206 204 195 187 208 221 235 259 266 261 264 267 264 267 272 269 266 263 261 258 260 252 243 237 235 233 229 223 223 233 240 242 249 252 245 240 241 239
171 196 228 274 281 254 243 225 206 212 222 231 248 255 266 270 267 268 270 267 268 268 263 257 257 256 254 250 240 234 236 232 220 219 224 236 244 247 246 249 248 240 239 240
171 173 170 275 252 262 262 243 225 228 234 244 261 269 267 272 262 258 256 255 259 262 261 258 256 252 245 240 238 233 233 227 216 220 231 238 237 238 240 246 245 241 242 244
164 155 177 254 324 307 263 228 205 210 216 215 232 246 254 252 244 248 254 252 255 260 259 256 253 250 243 236 231 231 231 219 214 225 233 232 232 237 242 245 241 245 246 243
154 151 166 265 348 246 247 138 194 214 231 222 239 254 253 257 273 269 257 255 258 256 255 254 252 250 244 235 228 225 217 211 217 228 233 233 235 239 245 246 245 250 249 246
170 156 157 184 251 274 276 205 184 204 254 223 231 247 254 262 289 271 247 238 242 246 249 252 247 242 231 221 212 197 204 208 219 235 240 238 233 236 238 245 250 249 248 249
97 143 163 179 226 249 250 152 159 165 268 219 212 232 229 186 246 268 218 217 235 242 244 245 238 220 217 217 192 188 205 207 230 241 241 236 230 231 236 244 252 254 251 256
162 172 196 205 235 261 242 141 152 195 249 182 199 213 195 201 229 265 191 231 235 240 242 232 216 212 217 197 178 196 210 227 240 240 233 234 237 239 242 246 247 251 253 263
177 176 191 182 214 248 169 156 197 221 199 179 198 204 205 220 241 254 253 253 246 240 235 221 214 215 207 183 185 206 228 242 230 212 217 229 238 242 241 243 251 251 248 251
204 196 187 196 217 245 174 201 218 220 224 223 216 217 216 230 243 249 250 247 242 236 229 215 210 210 207 191 195 217 240 229 201 200 219 231 235 238 237 234 239 243 245 250
222 207 207 240 253 244 227 237 243 235 237 241 235 230 219 233 245 246 245 240 234 225 218 206 198 211 222 208 209 229 239 194 190 212 224 224 226 235 233 237 236 239 240 247
200 177 204 243 260 273 252 233 236 236 238 243 243 234 230 235 241 239 240 235 227 219 207 196 206 219 228 217 221 229 217 192 207 222 225 224 226 233 237 239 243 245 248 251
192 188 194 227 220 212 236 223 216 221 229 231 232 238 232 225 235 235 235 231 219 212 201 199 209 219 228 221 231 233 212 200 210 223 227 225 226 229 236 246 264 261 263 276